Location: Observatoire
(46.1952°N, 5.3391°E)
Time: 22:58:48
(UTC+01:00)

A-11 Canister half - Pass Details

Date: 19 February 2026
Orbit: 1525 x 1683 km, 47.3° (Epoch: 5 March)

Event Time Altitude Azimuth Distance (km) Brightness Sun altitude
Rises 19:45:40 0° 273° (W) 4,694 13.4 -17.2°
Reaches altitude 10° 19:48:44 10° 274° (W) 3,701 12.3 -17.7°
Maximum altitude 19:58:05 84° 4° (N) 1,535 8.9 -19.3°
Enters shadow 20:03:31 29° 91° (E) 2,499 9.5 -20.2°
Drops below altitude 10° 20:07:28 10° 94° (E) 3,712 - -20.9°
Sets 20:10:32 0° 95° (E) 4,708 - -21.4°
